Location: ???????????
(54.8023°N, 39.2994°E)
Time: 10:59:46
(UTC+00:00)

Daily predictions for brighter satellites

Satellite Brightness Start Highest point End
(mag) Time Altitude Azimuth Time Altitude Azimuth Time Altitude Azimuth
ATLAS 2AS CENTAUR R/B 3.7 17:59:28 10° WSW 18:06:13 53° NNW 18:12:53 10° NE
Cosmos 2228 2.9 18:03:40 10° S 18:07:47 83° E 18:11:54 10° NNE
Cosmos 2233 Rocket 4.0 18:02:03 10° S 18:08:13 77° E 18:14:24 10° NNE
Cosmos 1805 3.9 18:10:25 10° N 18:13:22 30° ENE 18:16:18 10° SE
Cosmos 1544 Rocket 3.9 18:10:19 10° SSE 18:14:27 46° E 18:18:35 10° NNE
USA 186 1.6 18:11:44 10° S 18:14:27 70° W 18:17:13 10° NNW
USA 306 1.6 18:11:43 10° WSW 18:14:45 51° SSE 18:16:46 10° E
Cosmos 1980 Rocket 4.1 18:11:19 10° NW 18:15:55 26° WSW 18:20:31 10° SSW
NOSS 3 (A) 3.8 18:15:27 10° NW 18:17:32 89° NE 18:20:10 10° SE
COSMOS 2406 3.5 18:12:37 10° S 18:18:05 47° ESE 18:23:33 10° NE
BREEZE-M DEB (TANK) 2.8 18:16:14 10° SW 18:18:52 22° S 18:20:37 10° ESE
Cosmos 724 4.5 18:14:24 10° SW 18:20:25 83° NW 18:26:21 10° NE
Nadezhda 4 Rocket 4.5 18:15:11 10° N 18:21:04 46° ENE 18:26:57 10° SE
Meteor 1-20 Rocket 4.3 18:15:45 10° NNW 18:21:22 83° ENE 18:27:02 10° SSE
BREEZE-M DEB (TANK) 4.2 18:21:46 10° S 18:22:59 11° SSE 18:23:51 10° SE
Ariane Rocket 3.2 18:18:24 10° SSE 18:23:23 63° ENE 18:28:25 10° N
Okean-O 3.1 18:19:15 10° S 18:23:35 61° WSW 18:27:56 10° NNW
EP 1 4.3 18:21:33 10° NW 18:24:10 66° SW 18:26:38 11° SE
DNEPR-1 R/B 4.3 18:19:41 10° NW 18:24:57 81° SW 18:31:25 10° SE
SPOT 3 Rocket 3.6 18:21:15 10° SSE 18:26:23 81° ENE 18:31:33 10° NNW
CZ-2C R/B 2.8 18:24:02 11° SE 18:26:30 35° ENE 18:29:06 10° N
CZ-4 R/B 3.9 18:24:33 10° SW 18:26:43 15° W 18:28:55 10° NW
Cosmos 1782 3.6 18:24:11 10° SSW 18:27:35 47° WNW 18:31:02 10° N
Cosmos 1758 Rocket 3.7 18:23:58 10° NNW 18:28:22 78° W 18:32:47 10° S
Cosmos 2333 Rocket 2.3 18:22:43 10° NW 18:28:26 78° WSW 18:34:09 10° SSE
Spot 2 Rocket 4.1 18:23:59 10° S 18:28:54 55° W 18:33:52 10° NNW
Cosmos 1933 3.5 18:28:05 10° S 18:31:46 49° E 18:35:28 10° NNE
Cosmos 1825 Rocket 4.0 18:37:21 10° N 18:41:35 49° ENE 18:45:21 13° SSE
Cosmos 990 Rocket 4.4 18:37:14 10° NNW 18:42:18 52° NE 18:47:00 12° SE
Cosmos 2360 Rocket 2.3 18:36:56 10° NNW 18:42:41 86° ENE 18:47:55 12° SSE
Cosmos 44 4.0 18:39:34 10° NW 18:44:57 59° NE 18:50:13 10° ESE
CZ-4C R/B 2.9 18:42:09 10° WSW 18:46:46 54° NNW 18:52:50 10° NE
Cosmos 1536 4.5 18:44:43 10° NNE 18:47:26 19° ENE 18:50:10 10° ESE
Cosmos 1953 Rocket 4.5 18:43:26 10° N 18:47:29 35° ENE 18:50:54 13° SE
Cosmos 2333 4.3 18:44:18 10° NNW 18:50:03 84° NE 18:55:12 13° SE
Helios 1B rocket 4.0 18:47:33 10° ESE 18:50:03 19° ENE 18:52:35 10° NNE
CZ-4B R/B 3.5 18:45:47 10° SSE 18:50:33 79° WSW 18:55:28 10° NNW
Okean 1 4.2 18:48:20 14° SE 18:50:45 28° E 18:53:51 10° NNE
Cosmos 1602 Rocket 3.6 18:48:17 10° NNW 18:52:36 77° W 18:56:50 11° S
Cosmos 1992 Rocket 4.2 18:47:27 10° SSW 18:52:40 79° WNW 18:57:55 10° NNE
Cosmos 1461 2.6 18:50:52 10° SSW 18:54:28 52° SE 18:58:03 10° NE
Meteor 1-25 Rocket 4.4 18:50:12 10° NNW 18:55:53 74° W 19:01:27 10° S
Cosmos 2219 Rocket 2.3 18:50:28 10° NNW 18:56:10 74° NE 19:01:07 14° SE
Cosmos 1777 Rocket 4.1 18:51:11 10° NNW 18:56:27 80° WSW 19:01:01 14° SSE
Cosmos 1707 4.2 18:56:53 11° ESE 18:57:43 12° E 18:59:00 10° ENE
NOSS 3-3 (A) 3.9 18:58:15 10° SW 19:03:41 87° NW 19:10:20 10° NE
Cosmos 909 Rocket 4.1 18:58:01 10° SW 19:04:19 87° NW 19:11:05 10° NE
Cosmos 1503 Rocket 4.0 18:59:39 10° NNW 19:04:53 86° WSW 19:09:08 15° SSE
Cosmos 220 Rocket 3.8 19:01:24 10° SSW 19:05:25 65° ESE 19:09:31 10° NNE
ISS -3.5 19:02:18 10° WSW 19:05:33 49° S 19:08:28 12° ESE
Cosmos 1437 Rocket 2.9 19:03:59 10° SSW 19:07:32 66° WNW 19:11:09 10° N
USA 290 3.0 19:07:22 19° SSE 19:09:03 32° ESE 19:11:54 10° NE
Helios 1A 4.2 19:05:57 10° NE 19:09:09 23° E 19:11:05 17° SE
Cosmos 1076 Rocket 3.5 19:07:27 10° N 19:11:44 69° ENE 19:14:52 17° SSE
Cosmos 2098 Rocket 3.0 19:07:51 10° S 19:12:35 78° E 19:16:38 10° NNE
Cosmos 2322 Rocket 2.6 19:08:46 10° NW 19:14:20 59° WSW 19:18:59 15° SSE
Terra 4.4 19:12:17 10° WSW 19:14:44 14° W 19:17:11 10° NW
Cosmos 1464 Rocket 4.0 19:09:20 10° S 19:15:27 74° E 19:21:40 10° NNE
Cosmos 2151 4.4 19:14:04 10° NNW 19:17:45 32° W 19:21:24 10° SSW
RESURS DK-1 3.4 19:15:04 10° NNW 19:18:46 36° NE 19:22:10 12° ESE
Cosmos 1354 Rocket 4.0 19:13:51 10° NNW 19:19:09 88° ENE 19:23:09 18° SSE
ARIANE 5 R/B 4.1 19:17:33 11° ESE 19:20:59 27° ENE 19:24:44 10° N
Cosmos 2082 Rocket 3.4 19:16:00 10° WSW 19:21:30 46° NW 19:27:01 10° NNE
ALOS 2 4.3 19:19:12 10° ESE 19:22:37 24° ENE 19:26:08 10° N
Meteor 2-10 4.5 19:17:36 10° NNW 19:23:19 69° W 19:28:15 14° S
Cosmos 372 Rocket 4.4 19:19:14 10° NNW 19:24:16 53° NE 19:28:14 16° SE
Cosmos 1606 Rocket 3.5 19:26:21 13° S 19:30:09 87° E 19:34:30 10° NNE
Cosmos 1092 Rocket 4.1 19:24:58 10° N 19:31:09 69° ENE 19:35:51 18° SSE
Cosmos 2237 Rocket 3.6 19:27:23 10° NNW 19:32:31 33° NE 19:37:37 10° ESE
NOSS 3-3 (C) 4.2 19:30:06 10° WSW 19:35:38 73° NW 19:42:26 10° NE
Aureole 1 Rocket 3.9 19:31:57 10° NNW 19:37:29 83° ENE 19:42:31 18° SSE
Cosmos 540 Rocket 3.7 19:33:38 16° S 19:37:37 52° ESE 19:42:37 10° NE
Cosmos 1726 Rocket 3.3 19:35:41 18° S 19:38:39 79° E 19:42:44 10° NNE
Cosmos 1766 2.7 19:35:29 10° N 19:38:44 69° E 19:40:18 27° SSE
Meteor 1-26 Rocket 4.4 19:35:05 18° SSE 19:39:08 55° E 19:44:43 10° NNE
Okean O Rocket 4.1 19:37:25 10° WSW 19:39:39 14° W 19:41:53 10° NW
Cosmos 1271 Rocket 4.1 19:39:32 17° ESE 19:40:29 19° E 19:42:55 10° NE
USA 306 1.5 19:39:20 10° W 19:41:08 39° WSW 19:41:08 39° WSW
NOSS 0 Rocket 4.4 19:35:58 10° NNW 19:42:04 56° NE 19:47:32 13° ESE
Cosmos 1842 4.2 19:42:25 20° ESE 19:43:16 22° E 19:45:46 10° NE
COSMOS 2428 3.0 19:38:03 10° NNW 19:43:45 63° NE 19:48:16 16° SE
SL-16 R/B 3.9 19:39:53 10° NW 19:44:19 24° WSW 19:48:43 10° SSW
Cosmos 1937 Rocket 4.2 19:40:22 10° NNW 19:45:21 46° NE 19:49:21 15° ESE
Geosat 4.2 19:46:38 10° NE 19:51:32 51° ESE 19:55:05 18° S
Cosmos 2034 Rocket 4.0 19:48:13 14° S 19:53:51 90° W 20:00:14 10° N
IKONOS-2 4.4 19:50:43 10° NNE 19:54:51 68° ESE 19:57:23 22° S
USA 234 4.4 19:53:32 10° E 19:58:14 20° SE 19:59:51 19° SE
ATLAS 2AS CENTAUR R/B 4.1 19:51:58 10° WNW 19:58:22 40° N 20:04:43 10° ENE
Cosmos-2242 2.8 19:57:49 23° S 20:00:17 75° E 20:04:25 10° NNE
COSMOS 2406 4.3 19:56:55 10° WSW 20:02:26 46° NW 20:07:59 10° NNE
TSX-5 3.3 20:07:12 10° NW 20:10:17 62° WSW 20:11:27 35° S
Cosmos 2333 Rocket 4.2 20:08:16 10° WNW 20:11:51 17° W 20:15:28 10° SW
BREEZE-M R/B 4.3 20:04:40 10° W 20:12:26 57° SSW 20:18:02 10° ESE
Cosmos 2279 Rocket 4.2 20:08:45 22° SSE 20:12:50 57° E 20:18:57 10° NNE
Meteor 1-14 Rocket 4.2 20:07:41 10° NNW 20:13:16 73° ENE 20:16:48 23° SSE
SL-08 ROCKET BODY 4.5 20:08:20 10° N 20:14:32 83° ENE 20:18:40 23° SSE
SeaSat 1 4.1 20:11:01 10° E 20:15:15 30° NE 20:19:30 10° NNW
Cosmos 1634 Rocket 4.0 20:13:08 20° S 20:17:34 81° E 20:23:48 10° NNE
Cosmos 1763 Rocket 3.6 20:13:22 10° SSW 20:18:34 77° WNW 20:23:52 10° NNE
Cosmos 1898 Rocket 3.4 20:13:32 10° NNW 20:18:44 86° WSW 20:21:54 24° SSE
Cosmos 1833 4.2 20:16:21 10° SW 20:22:02 85° WNW 20:27:42 10° NNE
Cosmos 2297 Rocket 3.6 20:19:59 18° SE 20:22:09 22° ESE 20:26:22 10° NE
Helios 1B rocket 2.5 20:21:14 29° SSW 20:22:44 51° WSW 20:26:11 10° NNW
Cosmos 1536 3.2 20:19:22 10° NNW 20:22:56 49° W 20:24:41 26° SSW
Cosmos 1470 2.2 20:20:31 10° NNW 20:23:50 90° SW 20:25:01 37° S
CZ-2C R/B 3.9 20:19:35 10° NNE 20:23:59 55° ESE 20:26:14 27° SSE
Cosmos 2221 3.0 20:22:50 27° SSE 20:24:38 44° E 20:28:38 10° NNE
Cosmos 2360 Rocket 3.9 20:21:45 10° NW 20:26:00 22° WSW 20:29:39 12° SSW
Cosmos 44 4.2 20:20:58 10° NW 20:26:01 41° WSW 20:28:40 24° S
Cosmos 2322 3.8 20:22:47 10° NW 20:28:29 69° WSW 20:31:53 25° SSE
Cosmos 1707 2.9 20:28:22 25° SW 20:29:34 41° WNW 20:32:18 10° N
Meteor 2-6 Rocket 4.4 20:26:06 22° S 20:30:04 77° E 20:36:01 10° NNE
Cosmos 1461 4.4 20:27:30 10° W 20:30:54 33° NNW 20:34:16 10° NE
CZ-4C R/B 4.0 20:31:07 10° WNW 20:36:06 37° N 20:42:30 10° ENE
Cosmos 2266 Rocket 4.0 20:32:21 10° N 20:38:24 70° ENE 20:42:17 23° SSE
GP-B 3.7 20:35:24 10° NNE 20:39:37 44° E 20:41:42 25° SE
Cosmos 2219 Rocket 3.6 20:35:00 10° NW 20:39:37 26° WSW 20:42:48 16° SSW
Cosmos 2058 Rocket 3.5 20:37:19 20° SSW 20:40:12 56° WNW 20:44:29 10° N
ISS -2.6 20:39:02 10° W 20:41:23 27° SW 20:41:23 27° SW
USA 290 4.4 20:40:33 10° WSW 20:43:13 24° NW 20:45:53 10° N
Helios 1A 3.7 20:40:16 10° N 20:44:02 45° WNW 20:46:48 17° SW
SAR-Lupe-2 3.3 20:46:49 40° SSE 20:47:55 89° WSW 20:51:15 10° NNW
Cosmos 1975 2.8 20:46:07 10° NNW 20:49:46 62° W 20:51:09 34° SSW
Cosmos 841 Rocket 3.6 20:48:19 26° S 20:51:08 61° ESE 20:56:18 10° NNE
Meteor 1-19 Rocket 4.4 20:49:52 25° S 20:53:21 72° E 20:59:19 10° NNE
KORONAS-FOTON 4.5 20:51:50 23° SW 20:53:32 41° WNW 20:56:48 10° N
RESURS DK-1 3.0 20:52:27 10° NW 20:56:09 37° WSW 20:57:22 30° SSW
ARIANE 5 R/B 3.0 20:54:55 27° SSW 20:57:03 52° W 21:01:26 10° NNW
Cosmos 2322 Rocket 4.4 20:55:01 10° WNW 20:57:12 12° W 20:59:24 10° WSW
ALOS 2 2.8 20:56:35 29° S 20:58:39 59° WSW 21:03:01 10° NNW
SL-16 R/B 3.3 20:59:29 10° NNW 21:04:55 42° NE 21:10:18 10° ESE
Cosmos 1655 Rocket 4.3 21:00:01 10° N 21:06:12 60° ENE 21:10:33 20° SSE
Cosmos 2084 4.3 21:06:49 10° NW 21:10:50 47° NNE 21:14:51 10° ESE
Cosmos 1271 Rocket 3.4 21:12:52 24° SW 21:14:27 40° WNW 21:17:40 10° N
Cosmos 1766 Rocket 3.6 21:11:55 10° N 21:16:14 73° ENE 21:18:21 29° SSE
PSLV R/B 3.5 21:12:06 10° NNE 21:16:23 85° WNW 21:18:34 29° SSW
Cosmos 1842 4.3 21:15:02 20° WSW 21:16:29 28° WNW 21:19:18 10° N
Cosmos 2237 Rocket 2.2 21:11:23 10° NW 21:17:05 74° WSW 21:20:31 25° SSE
Lacrosse 4 Rocket 2.6 21:16:34 23° SE 21:17:21 24° ESE 21:20:41 10° ENE
CZ-2C R/B 2.6 21:17:31 25° SSE 21:20:40 86° ENE 21:25:54 10° NNW
Cosmos 1980 3.8 21:15:35 10° NW 21:21:12 65° WSW 21:24:26 26° SSE
ARGOS Delta rocket 4.3 21:18:41 10° N 21:23:45 67° WNW 21:27:06 23° SSW
Cosmos 1937 Rocket 4.3 21:22:27 10° NW 21:27:08 36° WSW 21:29:23 24° SSW
COSMOS 2428 3.7 21:22:41 10° NW 21:27:41 32° WSW 21:30:13 22° SSW
Iridium 4 Rocket 4.4 21:25:13 21° SSE 21:28:51 49° E 21:34:26 10° NNE
Meteor 1-11 Rocket 4.1 21:24:44 10° NNW 21:30:14 51° W 21:33:18 25° SSW
Cosmos 2227 Rocket 3.3 21:29:18 21° SSE 21:32:02 31° ESE 21:36:56 10° NE
Meteor 2-4 Rocket 3.9 21:29:47 26° SSE 21:32:49 61° E 21:38:18 10° NNE
Meteor 1-10 Rocket 4.5 21:34:57 23° SSW 21:38:47 70° WNW 21:44:45 10° N
Cosmos 2263 Rocket 3.6 21:39:15 16° SE 21:42:06 24° ESE 21:46:29 10° NE
USA 234 3.4 21:35:53 10° ENE 21:42:18 55° SE 21:47:11 18° SW
MetOp-A 4.3 21:40:33 27° SSW 21:42:52 47° W 21:47:22 10° NNW
ACS3 Solar Sail 2.4 21:44:10 10° NNE 21:49:54 46° E 21:53:51 20° SSE
ATLAS 2AS CENTAUR R/B 3.3 21:43:42 10° NW 21:50:26 58° NNE 21:57:07 10° ESE
Cosmos 1812 Rocket 4.5 21:48:19 21° SW 21:50:52 41° WNW 21:55:06 10° N
CZ-2C R/B 3.4 21:45:21 10° NNE 21:51:06 80° WNW 21:54:49 23° SSW
SeaSat 1 2.4 21:49:02 21° SSE 21:52:17 77° WSW 21:57:14 10° NW
Cosmos 1238 Rocket 2.9 21:50:42 32° SSW 21:52:31 81° W 21:56:59 10° N
Meteor 1-27 Rocket 3.8 21:50:12 24° SSW 21:53:49 78° WNW 21:59:34 10° NNE
Cosmos 1500 Rocket 4.4 21:52:21 10° N 21:56:40 46° ENE 21:59:56 16° SE
Meteor 2-20 Rocket 4.3 21:53:24 25° SSW 21:56:55 83° WNW 22:02:41 10° N
Cosmos 1758 3.4 21:55:33 10° N 21:59:08 59° ENE 22:01:00 26° SSE
Alouette 2 Rocket 3.8 21:57:39 10° NNW 22:01:16 50° WSW 22:03:14 28° SSW
Cosmos 2221 4.1 21:59:07 14° WSW 22:01:50 26° WNW 22:05:23 10° N
Cosmos 2297 Rocket 2.2 22:01:44 22° SW 22:05:31 86° WNW 22:11:14 10° NNE
Cosmos 1125 Rocket 3.7 22:00:36 10° NNW 22:05:56 75° ENE 22:10:39 13° SSE
BlueWalker 3 2.7 22:07:42 28° SSE 22:07:42 28° SSE 22:10:46 10° E
Okean 3 Rocket 3.6 22:04:57 10° NNW 22:09:30 87° W 22:12:07 25° S
Meteor 2-10 Rocket 3.8 22:07:09 10° NNW 22:12:35 63° W 22:16:03 23° S
Landsat 5 3.3 22:09:46 10° NNE 22:13:53 82° WNW 22:15:53 29° SSW
Cosmos 1340 Rocket 3.1 22:12:22 10° N 22:16:11 60° ENE 22:18:42 20° SSE
Cosmos 1842 Rocket 3.5 22:16:33 27° SSW 22:18:52 80° WNW 22:23:19 10° N
Sich 1 3.0 22:16:10 10° NNW 22:20:19 64° W 22:22:24 28° S
Cosmos 1553 Rocket 4.2 22:16:07 21° S 22:20:35 72° E 22:27:00 10° NNE
SL-14 R/B 3.2 22:21:32 29° S 22:23:22 75° E 22:27:11 10° NNE
Cosmos 1814 Rocket 4.0 22:20:30 24° SSW 22:23:39 81° ESE 22:28:56 10° NNE
Cosmos 1805 Rocket 3.5 22:21:05 10° N 22:25:27 85° ENE 22:28:12 22° SSE
CZ-4C R/B 3.6 22:19:38 10° NW 22:25:31 52° NNE 22:33:06 10° E
BREEZE-M DEB (TANK) 3.9 22:17:14 10° SW 22:28:33 41° S 22:32:32 10° E
DELTA 2 DEB (DPAF) 3.5 22:25:06 10° NNE 22:28:41 89° ESE 22:30:21 30° SSW
Cosmos 1743 Rocket 3.9 22:26:05 10° N 22:30:23 61° ENE 22:33:47 16° SSE
Cosmos 1066 Rocket 4.2 22:27:10 23° SSW 22:30:39 73° WNW 22:36:14 10° NNE
Cosmos 1953 3.5 22:32:50 10° N 22:36:15 35° ENE 22:39:38 10° SE
CENTAUR R/B 4.3 22:33:10 10° SE 22:36:29 16° ESE 22:40:11 10° ENE
IDEFIX/ARIANE 42P 3.6 22:33:18 10° NNE 22:38:10 37° E 22:42:24 13° SSE
CZ-4C R/B 3.3 22:37:00 10° N 22:40:19 55° WNW 22:41:59 26° SW
Cosmos 1745 Rocket 4.0 22:41:41 10° N 22:47:51 89° ENE 22:53:22 13° S
Meteor 1-18 Rocket 4.3 22:44:04 21° SSW 22:47:55 70° WNW 22:53:38 10° N
Cosmos 158 Rocket 4.3 22:44:55 19° SW 22:48:47 64° WNW 22:54:05 10° NNE
SL-16 R/B 2.4 22:43:40 10° NW 22:49:13 53° WSW 22:53:44 15° S
Cosmos 1408 Rocket 3.7 22:45:04 10° NNW 22:49:17 57° W 22:51:52 22° SSW
Cosmos 2084 3.6 22:45:30 10° WNW 22:49:28 45° SW 22:52:43 14° SSE
Lacrosse 4 Rocket 1.7 22:51:57 18° WSW 22:54:50 57° NW 22:58:55 10° NE
Cosmos 2219 3.9 22:51:04 17° S 22:55:08 45° ESE 23:00:28 10° NE
SL-19 R/B 3.8 22:53:52 26° S 22:55:23 59° WSW 22:58:36 10° NNW
Cosmos 2237 Rocket 3.9 22:56:51 10° WNW 23:00:10 16° W 23:02:17 13° WSW
CZ-2C R/B 4.3 22:58:57 13° WSW 23:01:34 19° W 23:05:12 10° NW
BREEZE-M DEB (TANK) 2.7 23:00:12 10° W 23:06:12 62° S 23:08:38 10° ESE
In-Cosmos 22 4.4 23:05:14 18° SSW 23:09:20 61° WNW 23:14:59 10° N
PSLV R/B 3.9 23:07:11 10° N 23:11:03 63° WNW 23:13:37 20° SSW
Cosmos 1703 2.9 23:10:39 20° S 23:12:41 67° E 23:15:54 10° NNE
Cosmos 1417 Rocket 4.5 23:10:22 16° S 23:15:27 87° W 23:21:40 10° N
Cosmos 2227 Rocket 2.5 23:11:04 15° SW 23:15:44 65° NW 23:21:24 10° NNE
ADEOS Rocket 3.9 23:08:01 10° NNE 23:15:44 62° E 23:22:55 10° S
Meteor 1-22 Rocket 4.2 23:10:43 10° NNW 23:16:35 74° W 23:22:06 10° S
USA 281 3.6 23:10:51 10° SE 23:17:22 69° NE 23:23:54 10° NNW
Cosmos 1900 4.2 23:13:16 10° NW 23:18:11 86° SW 23:23:03 10° SE
H-2A R/B 4.4 23:15:48 10° ESE 23:18:47 25° ENE 23:21:49 10° N
Cosmos 1867 3.5 23:14:00 10° NW 23:19:30 83° SW 23:24:58 10° SE
BREEZE-M DEB (TANK) 4.0 23:23:10 19° SW 23:24:10 21° S 23:28:40 10° SE
Cosmos 2263 Rocket 2.2 23:20:54 16° SW 23:25:28 78° NW 23:31:05 10° NNE
USA 234 3.3 23:19:04 10° ENE 23:25:38 85° NNW 23:32:12 10° WSW
USA 81 4.2 23:22:16 10° N 23:27:35 79° E 23:32:50 10° S
Cosmos 1151 Rocket 3.6 23:25:13 17° SW 23:28:16 44° WNW 23:32:25 10° N
SeaSat 1 4.1 23:28:37 14° SW 23:30:24 16° WSW 23:33:24 10° WNW
Cosmos 1633 Rocket 3.0 23:27:15 10° NNW 23:31:36 84° W 23:35:56 10° S
MOZ.5/SAFIR/RUBIN 5/SL-8 3.9 23:27:14 10° SSE 23:31:50 78° ENE 23:36:26 10° NNW
ACS3 Solar Sail 2.4 23:26:40 10° N 23:32:15 43° WNW 23:37:20 12° SW
Cosmos 1470 Rocket 3.8 23:28:50 10° N 23:33:11 72° ENE 23:37:33 10° SSE
ADEOS II 4.1 23:29:21 10° NE 23:33:29 23° E 23:37:36 10° SE
Cosmos 1943 3.2 23:28:16 10° NW 23:33:47 59° WSW 23:39:16 10° SSE
ATLAS 2AS CENTAUR R/B 2.7 23:34:48 10° NW 23:41:25 57° SW 23:48:02 10° SSE
BlueWalker 3 1.7 23:41:17 10° WSW 23:44:44 63° S 23:48:15 10° E
Cosmos 2298 Rocket 4.1 23:39:38 10° NNW 23:44:54 61° WSW 23:50:06 10° S
Cosmos 2285 Rocket 4.0 23:38:38 10° NNW 23:44:58 81° WSW 23:51:17 10° SSE
Meteor 1-15 Rocket 4.4 23:39:44 10° NNW 23:45:36 65° W 23:51:26 10° S
Resurs 1-4 Rocket 3.3 23:40:42 10° NNE 23:45:38 39° E 23:50:32 10° SSE
S3M 4.1 23:40:11 13° SSW 23:45:46 65° WNW 23:51:54 10° N
MSX 3.9 23:40:47 10° NNE 23:46:35 76° WNW 23:52:04 11° SSW
Cosmos 1570 Rocket 4.1 23:42:50 13° SSW 23:47:32 85° WNW 23:52:54 10° NNE
NOSS 2-2 (C) 3.3 23:47:30 15° SSW 23:49:54 43° SE 23:52:45 10° ENE
Cosmos 1833 Rocket 4.4 23:44:55 10° NNW 23:50:12 39° NE 23:55:27 10° ESE
Cosmos 2297 Rocket 3.8 23:45:33 10° W 23:50:21 28° NNW 23:55:11 10° NNE
Meteor 1-16 Rocket 4.1 23:46:35 10° NNW 23:51:55 81° W 23:57:15 10° S
EXPRESS MD2 3.2 23:51:49 17° SW 23:52:51 24° S 23:55:02 10° SE
